www.pogodaiklimat.ru

Погода и климат >> Архив погоды >> Сербия >> Кралево


ПОГОДА в Кралево

  • Прогноз погоды в Кралево
  • Монитор погоды в Кралево

АРХИВ ПОГОДЫ в Кралево

Время (UTC), дата Ветер
(напр.,м/с)
 
Видим.   Явления Облачность Т
(С)
Тd
(С)
f
(%)
Тe
(С)
Тes
(С)
Комфортность P
(гПа)
Po
(гПа)
Тmin
(С)
Tmax
(С)
R
(мм)
R24
(мм)
S
(см)
13 9.07 СВ 1 50 км 8/4 1000 м
[Cu hum Ci fib]
+24.6 +16.4 60 +28 +37 душно 1013.3 988.7
14 9.07 В 2 50 км 9/4 1000 м
[Cu hum Cs]
+24.5 +16.6 61 +28 +33 душно 1012.6 987.9
15 9.07 С 2 50 км 9/4 1000 м
[Cu Sc Cs]
+23.3 +15.7 62 +28 +31 душно 1012.2 987.5
16 9.07 С 1 50 км 10/3 1000 м
[Cu Sc Ac As]
+22.4 +14.7 62 +26 +27 жарко 1012.2 987.4
17 9.07 СВ 1 50 км 10/6 1000 м
[Cu Sc Ac As]
+22.4 +14.5 61 +26 +26 жарко 1012.8 987.9
18 9.07 Ю 1 50 км в посл. час дождь 10/10 1000 м
[Cu Sc]
+21.1 +16.2 74 +24 +24 комфорт 1013.1 988.2 +24.8 0.1
19 9.07 С 1 50 км 10/10 1000 м
[Cu Sc]
+19.3 +16.6 84 +22 +22 комфорт 1013.4 988.3
20 9.07 Ю 2 40 км слаб. дождь 10/10 1000 м
[Cu Sc]
+19.1 +16.8 87 +21 +21 комфорт 1014.2 989.1
21 9.07 Ю 2 40 км в посл. час дождь 10/10 1000 м
[Cu Sc]
+18.2 +15.7 85 +19 +19 1014.2 989.0
22 9.07 ЮЗ 2 40 км 10/10 1000 м
[Sc]
+17.2 +15.3 89 +18 +18 1014.4 989.1
23 9.07 штиль 0 40 км 10/3 1000 м
[Sc Ac As]
+16.8 +14.4 86 +17 +17 1014.0 988.7
00 10.07 Ю 1 40 км {дождь} 10/3 1000 м
[Sc Ac As]
+16.6 +15.8 95 +17 +17 1012.6 987.4 0.7
01 10.07 З 1 40 км 10/4 1000 м
[Sc Ac As]
+16.6 +14.4 87 +17 +17 1012.8 987.5
02 10.07 ЮЗ 2 40 км 10/10 1000 м
[Sc]
+16.4 +14.7 90 +16 +16 1013.1 987.8
03 10.07 З 1 25 км слаб. дождь 10/10 1000 м
[Sc]
+16.1 +15.5 96 +17 +17 1013.6 988.3
04 10.07 Ю 1 25 км в посл. час дождь 10/10 1000 м
[Cu Sc]
+15.8 +15.1 96 +16 +16 1013.4 988.1
05 10.07 З 1 25 км 9/9 1000 м
[Cu Sc]
+16.4 +15.0 91 +17 +17 1013.2 987.9
06 10.07 СЗ 2 25 км {дождь} 10/10 1000 м
[Cu Sc]
+17.4 +16.4 94 +18 +18 1013.8 988.5 +15.8 2
07 10.07 С 2 25 км в посл. час дождь 10/10 1000 м
[Cu Sc]
+17.4 +14.7 84 +18 +18 1013.8 988.5
08 10.07 СВ 1 25 км 10/10 1000 м
[Cu Sc]
+17.0 +12.8 76 +18 +18 1013.8 988.5
09 10.07 С 2 25 км {дождь} 10/10 1000 м
[Cu Sc]
+17.0 +12.8 76 +17 +17 1014.6 989.3
10 10.07 ЮЗ 1 20 км слаб. дождь 10/10 1000 м
[Cu Sc]
+16.4 +13.6 84 +17 +17 1015.0 989.5
11 10.07 С 2 20 км в посл. час дождь 10/10 1000 м
[Sc]
+16.0 +13.0 82 +16 +16 1015.3 989.8
12 10.07 С 1 30 км в посл. час дождь 10/10 1000 м
[Sc]
+15.5 +12.3 81 +16 +16 1015.2 989.7 1
13 10.07 З 2 30 км слаб. дождь 10/10 1000 м
[Sc]
+15.5 +13.2 86 +15 +15 1014.8 989.3
14 10.07 З 2 30 км в посл. час дождь 10/10 1000 м
[Sc]
+15.3 +13.1 87 +15 +15 1014.9 989.4
15 10.07 СЗ 2 30 км в посл. час дождь 10/10 1000 м
[Sc]
+14.7 +12.5 87 +14 +14 1015.7 990.1
16 10.07 З 1 30 км 8/1 1000 м
[Cu med, cong Ac As]
+15.7 +11.1 74 +16 +18 1014.8 989.3
17 10.07 СЗ 1 30 км 6/3 1000 м
[Cu med, cong Ci fib]
+16.0 +10.8 71 +17 +17 1014.8 989.3
18 10.07 З 1 30 км {дождь} 5/1 1000 м
[Sc diur, vesp Ac trans Ci fib]
+15.7 +11.2 75 +16 +16 1014.8 989.3 +17.5 2
19 10.07 Ю 1 30 км 5/0
[Ac trans Ci fib]
+13.5 +12.1 91 +14 +14 1014.7 989.1
20 10.07 Ю 1 50 км 3/0
[Ci fib]
+12.3 +10.9 91 +12 +12 1015.2 989.4
21 10.07 ЮЗ 1 50 км 3/0
[Ci fib]
+12.0 +9.8 86 +12 +12 1015.5 989.7
22 10.07 ЮЗ 1 50 км ясно +10.7 +8.8 88 +10 +10 1015.6 989.7
23 10.07 З 1 50 км ясно +9.8 +8.6 92 +9 +9 1015.3 989.3
00 11.07 З 1 50 км ясно +9.1 +7.7 91 +8 +8 1015.2 989.1
01 11.07 З 1 50 км ясно +9.1 +7.9 92 +8 +8 1015.2 989.1
02 11.07 ЮЗ 1 50 км ясно +9.4 +8.5 94 +9 +9 1015.2 989.1
03 11.07 ЮЗ 1 50 км 1/0
[Ac trans]
+9.2 +7.9 92 +8 +8 1015.2 989.1
04 11.07 З 1 50 км 3/0
[Ac trans]
+9.1 +7.9 92 +8 +9 1015.4 989.3
05 11.07 З 2 50 км 1/0
[Ac trans]
+11.4 +9.7 89 +10 +12 1015.2 989.3
06 11.07 СЗ 2 50 км ясно +14.0 +10.6 80 +13 +19 1015.0 989.4 +8.0
07 11.07 СЗ 2 50 км ясно +15.6 +10.8 73 +16 +25 1014.9 989.4
08 11.07 С 2 50 км 1/1 1000 м
[Cu med, cong]
+18.4 +11.8 65 +19 +31 опасность
простуды
1014.6 989.3
09 11.07 СЗ 2 50 км 1/1 1000 м
[Cu med, cong]
+19.6 +10.9 57 +21 +37 комфорт 1014.4 989.3
10 11.07 СЗ 3 50 км 4/4 1000 м
[Cu med, cong]
+21.3 +10.5 50 +23 +32 комфорт 1013.8 988.9
11 11.07 З 2 50 км 4/4 1000 м
[Cu med, cong]
+22.8 +18.3 76 +28 +40 душно 1013.1 988.3
12 11.07 СЗ 4 50 км 4/4 1000 м
[Cu med, cong]
+23.0 +9.5 42 +25 +32 комфорт 1012.7 987.9
13 11.07 С 2 50 км 4/4 1000 м
[Cu med, cong]
+24.1 +9.0 38 +25 +33 комфорт 1012.2 987.5
14 11.07 СЗ 3 50 км 4/4 1000 м
[Cu med, cong]
+23.8 +8.6 38 +24 +30 комфорт 1012.1 987.4
15 11.07 СЗ 3 50 км 3/3 1000 м
[Cu med, cong]
+24.3 +8.1 36 +25 +29 комфорт 1012.1 987.4
16 11.07 СЗ 3 50 км 3/3 1000 м
[Sc diur, vesp]
+23.4 +7.6 36 +24 +26 комфорт 1011.8 987.0
17 11.07 СЗ 3 50 км 3/1 1000 м
[Sc diur, vesp Ci fib]
+23.1 +7.2 36 +24 +25 комфорт 1011.9 987.1
18 11.07 СЗ 2 50 км 1/0 1000 м
[Ci fib]
+21.3 +9.0 45 +23 +23 комфорт 1012.7 987.7 +24.1
19 11.07 Ю 2 40 км 1/0
[Ci fib]
+18.4 +10.9 62 +19 +19 1013.1 987.8
20 11.07 ЮЗ 1 40 км 1/0
[Ci fib]
+16.4 +10.3 67 +17 +17 1013.9 988.5
21 11.07 З 1 40 км 1/0
[Ci fib]
+15.2 +10.3 73 +16 +16 1014.0 988.5
22 11.07 З 2 40 км ясно +14.3 +9.8 74 +14 +14 1014.7 989.1
23 11.07 С 1 40 км ясно +13.1 +10.3 83 +13 +13 1014.8 989.1
00 12.07 СЗ 1 40 км ясно +11.9 +10.3 90 +12 +12 1014.8 989.0
01 12.07 ЮЗ 1 40 км ясно +11.1 +9.8 92 +11 +11 1014.8 988.9
02 12.07 штиль 0 20 км ясно +10.7 +10.0 95 +10 +10 1014.6 988.7
03 12.07 З 1 20 км ясно +10.6 +9.5 93 +10 +10 1014.6 988.7
04 12.07 З 2 30 км ясно +11.6 +9.2 85 +10 +11 1014.7 988.9
05 12.07 З 2 30 км 1/0
[Ci fib]
+13.3 +10.0 80 +13 +15 1015.0 989.3
06 12.07 СЗ 2 30 км 3/0
[Ci fib]
+15.9 +10.3 69 +16 +21 1014.8 989.3 +10.0
07 12.07 З 2 40 км 5/1 1000 м
[Cu hum Ci sp]
+18.3 +10.9 62 +19 +27 1014.3 989.0
08 12.07 СЗ 2 50 км 5/1 1000 м
[Cu hum Ac cast Ci sp]
+20.8 +11.8 56 +24 +33 комфорт 1014.0 989.0
09 12.07 З 2 50 км 8/1 1000 м
[Cu hum Ac cast Ci sp]
+22.2 +11.7 51 +24 +34 комфорт 1013.8 988.9
10 12.07 СЗ 2 50 км 9/1 1000 м
[Cu med, cong Ac trans Cs]
+23.4 +12.0 49 +26 +35 жарко 1013.8 988.9
11 12.07 С 2 50 км 9/1 1000 м
[Sc diur, vesp Ac As]
+23.8 +9.2 39 +25 +31 комфорт 1012.9 988.2
12 12.07 В 2 50 км 9/1 1000 м
[Cu med, cong Ac trans Ci sp]
+24.6 +9.2 38 +25 +34 комфорт 1012.6 987.9
13 12.07 С 2 50 км 9/1 1000 м
[Cu med, cong Ac trans Ci sp]
+26.0 +7.2 30 +26 +33 жарко 1012.3 987.7
14 12.07 З 1 50 км 9/1 1000 м
[Cu med, cong Ac trans]
+25.6 +7.0 31 +26 +31 жарко 1012.1 987.5
15 12.07 Ю 2 50 км 9/3 1000 м
[Sc diur, vesp Ac trans]
+24.9 +7.6 33 +25 +27 комфорт 1012.0 987.4
16 12.07 С 2 50 км 9/0
[Ac As]
+23.7 +10.5 43 +25 +26 комфорт 1011.8 987.1
17 12.07 СВ 2 50 км 9/0
[Ac As]
+22.4 +10.6 47 +24 +25 комфорт 1012.0 987.1
18 12.07 ЮВ 1 50 км 9/0
[Ac As]
+21.8 +11.5 52 +24 +24 комфорт 1012.0 987.1 +26.0
19 12.07 Ю 2 50 км 4/0
[Ac trans]
+18.8 +13.1 69 +20 +20 1012.7 987.5
20 12.07 Ю 1 50 км 3/0
[Ac trans]
+17.7 +12.5 72 +19 +19 1012.8 987.5
21 12.07 В 1 50 км ясно +16.0 +12.5 80 +17 +17 1013.3 987.0
22 12.07 ЮЗ 1 50 км ясно +15.5 +12.5 82 +16 +16 1013.6 988.2
23 12.07 Ю 1 50 км ясно +14.4 +11.2 81 +15 +15 1013.7 988.1
00 13.07 ЮВ 1 50 км 4/0
[Ac trans]
+14.1 +11.8 86 +14 +14 1013.4 987.8
01 13.07 штиль 0 50 км 5/0
[Ac trans]
+14.0 +12.1 88 +14 +14 1013.3 987.7
02 13.07 СЗ 1 50 км 5/0
[Ac trans]
+13.5 +12.0 91 +14 +14 1012.7 987.1
03 13.07 З 1 50 км 3/0
[Ac trans]
+13.5 +12.1 91 +14 +14 1012.6 987.0
04 13.07 В 1 40 км ясно +13.0 +12.0 94 +13 +14 1012.6 986.9
05 13.07 СЗ 1 40 км 1/0
[Ci fib]
+14.4 +13.2 92 +15 +17 1012.6 987.0
06 13.07 В 1 40 км 3/0
[Ci fib]
+16.3 +12.3 77 +17 +23 1012.4 987.0 +12.5
07 13.07 С 1 40 км 5/0
[Ac trans Ci fib]
+18.4 +12.7 69 +20 +28 1011.4 986.2
08 13.07 С 1 40 км 6/1 1000 м
[Cu med, cong Ac trans Ci fib]
+21.2 +13.0 59 +23 +34 комфорт 1010.7 985.8
09 13.07 З 1 40 км 8/3 1000 м
[Cu med, cong Ac trans Ci fib]
+23.3 +12.8 52 +26 +35 жарко 1010.2 985.4
10 13.07 С 1 40 км 9/3 1000 м
[Cu med, cong Ac trans Cs]
+24.4 +12.0 46 +26 +35 жарко 1009.7 985.1
11 13.07 З 1 40 км 10/4 1000 м
[Cu med, cong Ac trans Cs]
+25.2 +11.7 43 +27 +33 жарко 1009.3 984.7
12 13.07 СЗ 2 40 км 10/4 1000 м
[Cu med, cong Ac As]
+25.3 +12.3 44 +27 +30 жарко 1009.2 984.6
13 13.07 З 2 40 км 10/3 1000 м
[Cu med, cong Ac As]
+25.2 +13.1 47 +27 +30 жарко 1008.4 983.8
14 13.07 З 1 40 км 10/3 1000 м
[Cu med, cong Ac As]
+24.6 +12.1 46 +26 +29 жарко 1008.3 983.7
15 13.07 Ю 6 20 км гроза без осадков 10/10 1000 м
[Cb cap]
+20.1 +11.2 57 +21 +21 комфорт 1009.5 984.5
16 13.07 ЮЗ 3
{12}
20 км гроза, ливневой дождь 10/10 1000 м
[Cb cap]
+16.6 +14.7 89 +16 +16 1009.8 984.6
17 13.07 СЗ 2 20 км в посл. час гроза {дождь} 10/10 1000 м
[Cu Sc]
+16.4 +15.1 92 +16 +16 1009.9 984.6
18 13.07 ЮЗ 2
{12}
15 км {гроза, дождь} 10/10 1000 м
[Cu Sc]
+16.4 +15.1 92 +16 +16 1010.8 985.5 +25.6 3
19 13.07 СЗ 2 8000 м ливневой дождь, в посл. час гроза 10/10 600 м
[Sc]
+15.6 +15.3 98 +15 +15 1011.6 986.3
20 13.07 З 1 8000 м слаб. дождь 10/10 600 м
[Frnb]
+15.6 +15.3 98 +16 +16 1011.9 986.6
21 13.07 З 1 10 км {гроза, дождь} 10/10 600 м
[Sc]
+15.5 +15.1 97 +16 +16 1011.9 986.6
22 13.07 С 1 10 км 10/10 1000 м
[Sc]
+15.5 +15.1 97 +16 +16 1011.9 986.6
23 13.07 З 1 10 км 10/10 1000 м
[Sc]
+15.6 +15.3 98 +16 +16 1011.5 986.2
00 14.07 З 1 10 км {гроза, дождь} 10/10 1000 м
[Sc]
+15.6 +15.3 98 +16 +16 1011.2 985.9 4
01 14.07 З 1 10 км 10/10 1000 м
[Sc]
+15.5 +15.0 97 +16 +16 1011.2 985.9
02 14.07 З 1 10 км 10/10 1000 м
[Sc]
+15.4 +15.1 98 +16 +16 1011.2 985.9
03 14.07 З 2 8000 м слаб. дождь 10/10 1000 м
[Sc]
+15.2 +14.9 98 +15 +15 1010.8 985.5
04 14.07 З 2 8000 м слаб. дождь 10/10 1000 м
[Sc]
+15.0 +14.7 98 +15 +15 1010.8 985.4
05 14.07 З 1 8000 м слаб. дождь 10/10 600 м
[Sc]
+15.2 +14.9 98 +16 +16 1010.8 985.4
06 14.07 З 2 10 км {гроза, дождь} 10/10 600 м
[Sc]
+15.4 +14.8 96 +15 +15 1011.1 985.7 +14.2 9
07 14.07 З 1 30 км 9/9 600 м
[Sc]
+15.8 +14.7 93 +16 +18 1011.0 985.7
08 14.07 СЗ 1 30 км 10/10 1000 м
[Cu Sc]
+17.5 +14.7 84 +19 +19 1010.8 985.7
09 14.07 СЗ 2 20 км 10/10 1000 м
[Cu Sc]
+18.1 +14.4 79 +19 +19 1010.9 985.7
10 14.07 СЗ 2 20 км 9/9 1000 м
[Cu Sc]
+18.1 +15.7 86 +19 +21 1010.9 985.8
11 14.07 СЗ 5 20 км 10/10 1000 м
[Cu Sc]
+18.4 +14.9 80 +19 +19 1010.9 985.8
12 14.07 З 3 30 км 8/8 1000 м
[Cu Sc]
+19.5 +14.8 74 +21 +24 комфорт 1010.6 985.7
13 14.07 З 4 30 км 8/8 1000 м
[Cu Sc]
+20.7 +14.7 68 +24 +26 комфорт 1010.1 985.3
14 14.07 З 3 30 км 8/8 1000 м
[Cu Sc]
+21.0 +14.1 65 +24 +26 комфорт 1009.8 985.0
15 14.07 СЗ 2 30 км в посл. час дождь 8/8 1000 м
[Cu Sc]
+19.0 +16.6 86 +21 +22 комфорт 1010.0 985.0
16 14.07 С 1 30 км 8/6 1000 м
[Cu Sc Ac trans]
+20.2 +16.2 78 +24 +25 комфорт 1010.2 985.3
17 14.07 З 1 50 км 9/9 1000 м
[Cu Sc]
+20.1 +15.4 74 +24 +24 комфорт 1010.2 985.3
18 14.07 З 2 50 км {дождь} 8/6 1000 м
[Cu Sc Ac trans]
+19.6 +15.4 77 +22 +22 комфорт 1010.3 985.4 +21.7 0.5
19 14.07 З 2 50 км 8/5 1000 м
[Cu Sc Ac trans]
+18.3 +15.1 82 +19 +19 1010.8 985.7
20 14.07 З 2 40 км 6/4 1000 м
[Cu Sc Ac trans]
+17.4 +15.4 88 +18 +18 1011.4 986.2
21 14.07 З 1 40 км 6/3 1000 м
[Sc Ac trans]
+17.1 +14.5 85 +18 +18 1011.4 986.2
22 14.07 ЮЗ 2 40 км 8/5 1000 м
[Sc Ac trans]
+16.6 +14.7 89 +17 +17 1011.4 986.2
23 14.07 З 1 40 км 6/3 1000 м
[Sc Ac trans]
+16.6 +14.7 89 +17 +17 1011.3 986.1
00 15.07 З 1 40 км 6/3 1000 м
[Sc Ac trans]
+15.6 +14.1 91 +16 +16 1011.2 985.8
01 15.07 З 1 40 км 5/5 1000 м
[Sc]
+15.7 +14.5 93 +16 +16 1011.5 986.1
02 15.07 Ю 1 40 км 6/6 1000 м
[Sc]
+15.3 +14.3 94 +16 +16 1011.3 985.9
03 15.07 С 1 40 км 5/5 1000 м
[Cu Sc]
+14.6 +13.9 96 +15 +15 1011.2 985.8
04 15.07 ЮЗ 1 40 км 6/6 1000 м
[Cu Sc]
+15.1 +14.3 95 +16 +16 1011.3 985.9
05 15.07 З 1 40 км 4/4 1000 м
[Cu med, cong]
+16.4 +14.7 90 +17 +19 1011.5 986.2
06 15.07 СЗ 2 40 км 4/1 1000 м
[Cu med, cong Ac trans]
+18.2 +14.9 81 +19 +23 1011.3 986.2 +14.6
07 15.07 СЗ 3 40 км 3/3 1000 м
[Cu med, cong]
+19.7 +15.1 75 +22 +27 комфорт 1011.1 986.2
08 15.07 З 2 40 км 5/5 1000 м
[Cu med, cong]
+20.1 +14.8 72 +23 +30 комфорт 1011.2 986.3
09 15.07 СЗ 1 40 км 5/5 1000 м
[Cu med, cong]
+20.7 +14.7 68 +25 +34 комфорт 1011.2 986.3
10 15.07 С 2 40 км 6/6 1000 м
[Cu Sc]
+21.0 +14.1 65 +25 +32 комфорт 1011.4 986.5
11 15.07 ЮЗ 2 40 км 6/6 1000 м
[Cu med, cong]
+23.0 +14.3 58 +27 +34 душно 1011.0 986.3
12 15.07 В 2 40 км 9/9 1000 м
[Cu Sc]
+20.0 +14.8 72 +23 +25 комфорт 1011.2 986.3
13 15.07 Ю 2 40 км в посл. час гроза {дождь} 6/6 1000 м
[Cu med, cong]
+19.1 +16.0 82 +21 +27 комфорт 1011.3 986.3
14 15.07 З 1 40 км 8/8 1000 м
[Cu Sc]
+20.5 +16.3 77 +25 +27 комфорт 1011.2 986.3
15 15.07 С 1 40 км 8/8 1000 м
[Cu Sc]
+20.0 +16.8 82 +24 +25 комфорт 1011.1 986.2
16 15.07 С 1 40 км 8/8 1000 м
[Cu Sc]
+22.2 +16.4 70 +26 +27 душно 1010.7 985.9
17 15.07 штиль 0 40 км 8/5 1000 м
[Sc Ac trans]
+21.6 +15.4 68 +25 +25 комфорт 1010.7 985.9
18 15.07 ЮЗ 1 40 км {гроза, дождь} 9/9 1000 м
[Sc Ac trans]
+19.6 +16.1 80 +23 +23 комфорт 1011.2 986.3 +23.3 2
19 15.07 ЮЗ 1 50 км 8/5 1000 м
[Sc Ac trans]
+19.3 +15.7 80 +22 +22 комфорт 1012.0 986.9
20 15.07 Ю 2 50 км 8/5 1000 м
[Sc Ac trans]
+18.2 +14.9 81 +19 +19 1012.4 987.3
21 15.07 ЮЗ 1 50 км 8/4 1000 м
[Sc Ac trans]
+17.0 +14.4 85 +18 +18 1012.8 987.5
22 15.07 ЮЗ 1 50 км 9/4 1000 м
[Sc Ac trans]
+16.3 +14.5 89 +17 +17 1013.1 987.7
23 15.07 З 1 50 км 8/4 1000 м
[Sc Ac trans]
+15.2 +13.9 92 +16 +16 1013.2 987.7
00 16.07 ЮЗ 1 50 км 9/3 1000 м
[Sc Ac As]
+15.0 +13.6 91 +15 +15 1012.9 987.5
01 16.07 штиль 0 50 км 9/3 1000 м
[Sc Ac As]
+14.6 +13.1 91 +14 +14 1013.0 987.5
02 16.07 ЮЗ 1 50 км 9/4 1000 м
[Sc Ac As]
+14.2 +13.4 95 +14 +14 1013.1 987.5
03 16.07 З 1 50 км 8/4 1000 м
[Sc Ac trans]
+13.5 +12.8 96 +14 +14 1013.1 987.5
04 16.07 штиль 0 50 км 6/1 1000 м
[Sc Ac trans Ci fib]
+13.7 +12.8 94 +13 +14 1013.0 987.4
05 16.07 ЮЗ 1 50 км 6/0
[Ac trans Ci fib]
+15.3 +13.5 89 +16 +18 1012.9 987.5
06 16.07 З 1 50 км 4/0
[Ci fib]
+17.2 +14.0 81 +18 +24 1012.8 987.5 +12.6
07 16.07 З 3 50 км 3/0
[Ci fib]
+19.1 +14.1 73 +21 +28 комфорт 1012.6 987.5
08 16.07 З 2 50 км 3/1 1000 м
[Cu hum Ci fib]
+21.3 +13.4 61 +24 +35 комфорт 1012.4 987.4
09 16.07 З 2 50 км 4/3 1000 м
[Cu med, cong Ci fib]
+22.7 +11.2 48 +25 +36 комфорт 1012.2 987.4
10 16.07 З 2 50 км 4/3 1000 м
[Cu med, cong Ci fib]
+22.6 +10.8 47 +25 +37 комфорт 1011.9 987.1
11 16.07 С 1 50 км 5/5 1000 м
[Cu med, cong]
+23.4 +9.0 40 +25 +36 комфорт 1011.8 987.0

 

Местоположение метеостанции Кралево (Сербия): широта 43.70 долгота 20.70 высота над уровнем моря 217 м.

В архиве по умолчанию представлена погода в Кралево за последнюю неделю. Архивные данные за месяц целиком и за предыдущие месяцы, начиная с января 2011 года, Вы можете получить, выбрав интересующий диапазон дат из раскрывающегося списка и нажав кнопку "Ввод!".


*Определитесь, кто Вы:
робот инопланетянин человек

Внимание! Время в таблицах - всемирное. Для получения местного времени необходимо прибавить поправку, которая равна 1 ч.

Смотрите также архив погоды в соседних городах и на ближайших метеорологических станциях:

Погода в Крагуеваце (Сербия) (41 км)
Погода на Копаонике (Сербия) (47 км)
Погода в Крушеваце (Сербия) (54 км)
Погода в Пожега Ужичка (Сербия) (56 км)
Погода в Чуприи (Сербия) (60 км)
Погода в Женике (Сербия) (73 км)
Погода в Смедеревска-Паланке (Сербия) (77 км)
Погода в Кукесе (Албания) (78 км)
Погода в Златиборе (Сербия) (79 км)
Погода в Валево (Сербия) (93 км)

Пояснения к столбцам:

Ветер - указаны скорость ветра в м/с - средняя за 10 мин, порывы в срок и между сроками (в фигурных скобках) и направление, откуда дует ветер: С - северный, СВ - северо-восточный, В - восточный, ЮВ - юго-восточный, Ю - южный, ЮЗ - юго-западный, З - западный, СЗ - северо-западный.
Видимость - горизонтальная дальность видимости в метрах или километрах. При видимости от 1 до 10 км при отсутствии осадков обычно наблюдается дымка, при ухудшении видимости до 1 км и менее - туман. В сухую погоду видимость может ухудшаться дымом, пылью или мглою.
Явления - указаны атмосферные явления, наблюдавшиеся в срок или в последний час перед сроком; фигурными скобками обозначены явления, наблюдавшиеся между сроками (за 1-3 часа до срока); квадратными скобками обозначены град или гололедные отложения с указанием их диаметра в мм.
Облачность - указаны через наклонную черту общая и нижняя облачность в баллах и высота нижней границы облаков в метрах; квадратными скобками обозначены формы облаков: Ci - перистые, Cs - перисто-слоистые, Cc - перисто-кучевые, Ac - высококучевые, As - высокослоистые, Sc - слоисто-кучевые, Ns - слоисто-дождевые, Cu - кучевые, Cb - кучево-дождевые. Подробнее классификацию облаков см. в Атласе облаков (PDF).
T - Температура воздуха - температура, измеренная на высоте 2 м над землей.
Td - Температура точки росы - температура, при понижении до которой содержащийся в воздухе водяной пар достигнет насыщения.
f - Относительная влажность воздуха - влажноcть воздуха, измеренная на высоте 2 м над землей.
Te - Эффективная температура - температура, которую ощущает одетый по сезону человек в тени. Характеристика душности погоды. При расчете учитывается влияние влажности воздуха и скорости ветра на теплоощущения человека.
Tes - Эффективная температура на солнце - температура, которую ощущает человек, с поправкой на солнечный нагрев. Характеристика знойности погоды. Зависит от высоты солнца над горизонтом, облачности и скорости ветра. Ночью, в пасмурную погоду, а также при ветре 12 м/с и более поправка равна нулю.
P - Атмосферное давление - приведенное к уровню моря атмосферное давление.
Po - Атмосферное давление - измеренное на уровне метеостанции атмосферное давление.
Tmin - Минимальная температура - минимум температуры воздуха на высоте 2 м над землей.
Tmax - Максимальная температура - максимум температуры воздуха на высоте 2 м над землей.
R - Количество осадков - Количество выпавших осадков за период времени, мм. При наведении курсора мыши на число - период времени, за который выпало указанное количество осадков.
R24 - Количество осадков - Количество выпавших осадков за 24 часа, мм.
S - Снежный покров - Высота снежного покрова, см. При наведении курсора мыши на число - состояние снежного покрова и степень покрытия местности в баллах.